Regional Weather Roundup
Issued by NWS Green Bay, WI

Home | Current Version | Previous Version | Graphics & Text | Print | Product List | Glossary Off
Versions: 1 2 3 4 5 6 7 8 9 10 11 12 13 14 15 16 17 18 19 20 21 22 23 24 25 26 27 28 29 30 31 32 33 34 35 36 37 38 39 40 41 42 43 44 45 46 47 48 49 50

000
ASUS43 KGRB 222011
RWRGRB

NORTH-CENTRAL AND NORTHEAST WISCONSIN REGIONAL WEATHER ROUNDUP
NATIONAL WEATHER SERVICE GREEN BAY WI
300 PM CDT FRI MAY 22 2015

WIZ005-009-010>012-018-019-222100-
NORTH CENTRAL WISCONSIN

CITY           SKY/WX    TMP DP  RH WIND       PRES   REMARKS
IRONWOOD       SUNNY     63  27  25 SW7       30.20F
MANITOWISH WTR SUNNY     63  29  27 N5        30.21F
ARBOR VITAE    SUNNY     64  26  23 N10G16    30.22S
EAGLE RIVER    SUNNY     65  15  14 NW9G16    30.20F
LAND O LAKES   SUNNY     65  13  13 W7        30.22S
RHINELANDER    SUNNY     67  25  20 MISG      30.22S
PHILLIPS       SUNNY     66  31  26 W5        30.21S
ANTIGO         SUNNY     65  31  28 W10       30.22S
TOMAHAWK       SUNNY     66  28  23 CALM      30.21S
MERRILL        SUNNY     67  32  27 NW5       30.22S
$$

WIZ013-073-222100-
NORTHEAST WISCONSIN

CITY           SKY/WX    TMP DP  RH WIND       PRES   REMARKS
IRON MOUNTAIN  SUNNY     67  19  16 NW13G23   30.19S
MARINETTE      SUNNY     57  28  33 SE17      30.24R
OCONTO         SUNNY     63  31  30 SE10      30.22F
$$

WIZ017-030-035>037-045-222100-
CENTRAL WISCONSIN

CITY           SKY/WX    TMP DP  RH WIND       PRES   REMARKS
MEDFORD        SUNNY     66  30  25 SW5       30.22S
WAUSAU         SUNNY     68  33  27 W10       30.20F
MOSINEE        SUNNY     66  34  30 NW5       30.23S
MARSHFIELD     SUNNY     68  33  27 W9        30.22F
WISC RAPIDS    SUNNY     72  26  18 N10       30.23F
STEVENS POINT  SUNNY     66  32  28 W6        30.22F
WAUPACA        SUNNY     72  28  19 SW6       30.22S
SHAWANO        SUNNY     70  30  23 W9        30.21S
CLINTONVILLE   SUNNY     70  28  21 W10G16    30.21S
$$

WIZ038-039-048-051-222100-
FOX VALLEY

CITY           SKY/WX    TMP DP  RH WIND       PRES   REMARKS
NWS GREEN BAY  SUNNY     68  32  26 N6        30.23F
APPLETON       MOSUNNY   64  28  25 NW7       30.23F
OSHKOSH        SUNNY     65  35  33 E10       30.23S
FOND DU LAC    SUNNY     67  33  28 NE10      30.23S
$$

WIZ022-050-052-222100-
EAST CENTRAL WISCONSIN

CITY           SKY/WX    TMP DP  RH WIND       PRES   REMARKS
STURGEON BAY   SUNNY     54  30  40 SE13      30.29S
MANITOWOC      SUNNY     52  33  48 SE10      30.28S
SHEBOYGAN      SUNNY     59  28  30 SE10      30.26S
$$

LMZ563-521-522-541>543-222100-
LAKESHORE

STATION/POSITION TIME  TEMP    WIND        PRES    VSBY  WAVE
                       AIR SEA DIR/SP/G                  HT/PER
                 (UTC) (F)     (DEG/KT/KT) (MB)    (MI)  (FT/S)
SHEBOYGAN LKSHOR 2000          120/ 11/ 12 1025.8F
KEWAUNEE LKSHORE 1900   45     130/  3/  7 1024.6R
NORTHPORT PIER   1900   44     140/ 11/ 11 1025.1S
N MID LAKE BUOY  1950   39 36  160/  8/ 10 1025.7F         1
CHAMBERS ISLAND  1900   57     130/  5/  9 1024.4S
MENOMINEE LKSHOR 1900   52     110/  8/  9 1024.7R
$$



USA.gov is the U.S. government's official web portal to all federal, state and local government web resources and services.